Location: Emory University Observatory
(33.7903°N, 84.3267°W)
Time: 20:27:19
(UTC-05:00)

Vanguard 1 Rocket - Visible Passes

Search period start: 18 January 2018 00:00
Search period end: 28 January 2018 00:00
Orbit: 656 x 4222 km, 34.3° (Epoch: 17 January)

Date Brightness Start Highest point End Pass type
(mag) Time Alt. Az. Time Alt. Az. Time Alt. Az.
18 Jan 11.4 03:47:32 10° S 03:56:11 14° SSE 04:02:57 10° ESE visible
18 Jan 10.1 06:10:52 10° SW 06:25:08 39° SSE 06:33:02 10° E visible
19 Jan 10.6 04:57:49 10° SSW 05:12:38 29° SSE 05:21:39 10° E visible
20 Jan 11.1 03:46:01 10° S 03:59:35 21° SSE 04:09:01 10° ESE visible
20 Jan 9.8 06:12:36 10° SW 06:28:26 49° SSE 06:36:45 10° E visible
21 Jan 11.5 02:37:09 10° SSE 02:46:01 14° SE 02:53:21 10° ESE visible
21 Jan 10.3 04:58:46 10° SSW 05:15:56 38° SSE 05:25:42 10° E visible
22 Jan 10.9 03:45:53 10° SSW 04:02:51 29° SSE 04:13:46 10° E visible
22 Jan 9.5 06:14:40 10° SW 06:31:43 60° SSE 06:40:19 10° E visible
23 Jan 11.3 02:34:48 10° S 02:49:18 20° SE 03:00:07 10° ESE visible
23 Jan 10.1 05:00:10 10° SW 05:19:09 48° SSE 05:29:27 10° E visible
24 Jan 11.7 01:33:30 12° SE 01:35:22 12° SE 01:41:37 10° ESE visible
24 Jan 10.6 03:51:09 17° SSW 04:06:01 37° SSE 04:17:55 10° E visible
24 Jan 9.4 06:17:00 10° WSW 06:34:56 70° SSE 06:43:48 10° E visible
25 Jan 11.1 02:46:44 25° SSE 02:52:25 27° SE 03:05:11 10° E visible
25 Jan 9.9 05:04:15 14° SW 05:22:18 57° SSE 05:33:03 10° E visible
26 Jan 11.4 01:41:28 18° SE 01:41:28 18° SE 01:50:00 10° ESE visible
26 Jan 10.4 03:58:54 30° SSW 04:09:05 46° SSE 04:21:43 10° E visible
26 Jan 9.3 06:19:33 10° WSW 06:38:08 79° SSE 06:47:15 10° E visible
27 Jan 10.8 02:53:05 34° SSE 02:55:24 35° SE 03:09:30 10° E visible
27 Jan 9.7 05:10:29 23° SW 05:25:25 67° SSE 05:36:31 10° E visible
